Regional Weather Roundup
Issued by NWS

Home | Current Version | Previous Version | Graphics & Text | Print | Product List | Glossary On
Versions: 1 2 3 4 5 6 7 8 9 10 11 12 13 14 15 16 17 18 19 20 21 22 23 24 25 26 27 28 29 30 31 32 33 34 35 36 37 38 39 40 41 42 43 44 45 46 47 48 49 50
000
ASUS43 KTOP 050508
RWRKS

WEATHER ROUNDUP FOR KANSAS
NATIONAL WEATHER SERVICE GOODLAND KS
1200 AM CDT SAT SEP 05 2015

NOTE:  "FAIR" INDICATES FEW OR NO CLOUDS BELOW 12,000 FEET WITH NO
SIGNIFICANT WEATHER AND/OR OBSTRUCTIONS TO VISIBILITY.

KSZ001>006-013>018-027>032-041>047-050600-
NORTHWEST KANSAS

CITY           SKY/WX    TMP DP  RH WIND       PRES   REMARKS
GOODLAND       CLOUDY    77  54  44 S20       29.90R
HAYS           CLEAR     81  59  47 S15       29.90S
HILL CITY      CLEAR     83  61  47 S14       29.88R
RUSSELL        CLEAR     82  62  50 S17       29.89R
$$

KSZ061>065-074>080-084>089-050600-
SOUTHWEST KANSAS

CITY           SKY/WX    TMP DP  RH WIND       PRES   REMARKS
DODGE CITY     CLEAR     78  57  48 S15       29.95R
ELKHART          N/A     74  56  53 S10         N/A
GARDEN CITY    CLEAR     78  58  49 S13       29.93R
GREAT BEND     CLEAR     81  61  50 S18       29.91S
LIBERAL        PTCLDY    81  55  41 S14       29.96S
PRATT          CLEAR     79  61  53 MISG      29.95S
$$

KSZ066>073-081>083-090>101-050600-
SOUTHEAST KANSAS

CITY           SKY/WX    TMP DP  RH WIND       PRES   REMARKS
CHANUTE        CLEAR     75  70  84 SE7       29.98S
COFFEYVILLE    CLEAR     76  70  82 SE5       29.97S
HUTCHINSON     CLEAR     76  67  73 SE10      29.94S
MEDICINE LODGE   N/A     80  65  59 S6        29.93S
NEWTON         CLEAR     75  64  69 SE9       29.99R
PARSONS        CLEAR     77  71  82 SE3       29.99S
WICHITA INTL   CLEAR     78  69  73 S9        29.95R
WICHITA JABRA  CLEAR     78  68  71 SE9       29.96R
WICHITA MCCONL CLEAR     78  67  69 SE9       29.96R
WINFIELD       CLEAR     79  69  71 SE10      29.97R
$$

KSZ007>012-019>026-033>040-048>060-102>105-050600-
NORTHEAST KANSAS

CITY           SKY/WX    TMP DP  RH WIND       PRES   REMARKS
CONCORDIA      PTCLDY    79  66  64 S17G25    29.91S
EMPORIA        CLEAR     76  69  79 SE10      29.97S
LAWRENCE       CLEAR     73  69  87 SE5       29.97S
MANHATTAN      CLEAR     80  70  71 S13       29.93S
MARYSVILLE     CLEAR     79  70  73 S9        29.93S
OLATHE IND     CLEAR     74  69  85 S6        29.99S
OLATHE EXE     CLEAR     74  69  85 S5        29.99R
SALINA         CLEAR     80  67  64 S13       29.92R
TOPEKA BILLARD CLEAR     79  69  71 S10       29.96S
TOPEKA FORBES  CLEAR     77  70  79 S8        29.97S
$$


USA.gov is the U.S. government's official web portal to all federal, state and local government web resources and services.